Weather History for Vernal, UT

Change the Weather History Date:

Thursday, April 25, 2013

  Actual Average Record
Temperature  
Mean Temperature 44 °F 50 °F  
Max Temperature 63 °F 63 °F 82 °F (1946)
Min Temperature 25 °F 37 °F 20 °F (1958)
Degree Days  
Heating Degree Days 21 15  
Month to date heating degree days 565 476  
Since 1 July heating degree days 7295 6807  
Cooling Degree Days 0 0  
Month to date cooling degree days 0 0  
Year to date cooling degree days 0 0  
Moisture  
Dew Point 14 °F    
Average Humidity 36    
Maximum Humidity 58    
Minimum Humidity 13    
Precipitation  
Precipitation 0.00 in 0.04 in 0.85 in (1990)
Month to date precipitation 0.80 0.66  
Year to date precipitation 2.52 2.36  
Sea Level Pressure  
Sea Level Pressure 30.00 in    
Wind  
Wind Speed 3 mph (WSW)    
Max Wind Speed 13 mph    
Max Gust Speed 17 mph    
Visibility 9 miles    
Events      
T = Trace of Precipitation, MM = Missing Value Source: NWS Daily Summary

Daily Weather History Graph

Daily Weather History Graph

Search for Another Location

Airport:

Trip Planner

Search our weather history database for the weather conditions in past years. The results will help you decide how hot, cold, wet, or windy it might be!

Date:

Astronomy

Apr. 25, 2013 Rise Set
Actual Time 6:24 AM MDT 8:07 PM MDT
Civil Twilight 5:55 AM MDT 8:36 PM MDT
Nautical Twilight 5:20 AM MDT 9:12 PM MDT
Astronomical Twilight 4:43 AM MDT 9:50 PM MDT
Moon 8:24 PM MDT (4/25) 6:09 AM MDT (4/25)
Length of Visible Light 14h 41m
Length of Day
13h 43m
Full, 100% of the Moon is Illuminated
Apr 25
Full
Apr 25
Full
May 2
Last Quarter
May 9
New
May 17
First Quarter

Hourly Weather History & Observations

Time (MDT) Temp. Windchill Dew Point Humidity Pressure Visibility Wind Dir Wind Speed Gust Speed Precip Events Conditions
12:53 AM 37.9 °F - 14.0 °F 38% 30.09 in 10.0 mi Calm Calm - N/A   Clear
1:53 AM 35.1 °F 31.0 °F 12.9 °F 40% 30.09 in 10.0 mi West 4.6 mph - N/A   Clear
2:53 AM 33.1 °F 30.0 °F 12.9 °F 43% 30.09 in 10.0 mi NW 3.5 mph - N/A   Clear
3:53 AM 30.0 °F 25.2 °F 14.0 °F 51% 30.09 in 10.0 mi WNW 4.6 mph - N/A   Clear
4:53 AM 28.0 °F 21.7 °F 12.9 °F 53% 30.09 in 10.0 mi WNW 5.8 mph - N/A   Clear
5:53 AM 28.9 °F - 12.9 °F 51% 30.09 in 10.0 mi Calm Calm - N/A   Clear
6:53 AM 28.9 °F 25.2 °F 15.1 °F 56% 30.09 in 10.0 mi West 3.5 mph - N/A   Clear
7:53 AM 34.0 °F 31.0 °F 17.1 °F 50% 30.09 in 10.0 mi WNW 3.5 mph - N/A   Clear
8:53 AM 41.0 °F 39.0 °F 14.0 °F 33% 30.09 in 10.0 mi South 3.5 mph - N/A   Clear
9:53 AM 44.1 °F 42.5 °F 12.0 °F 27% 30.08 in 10.0 mi Variable 3.5 mph - N/A   Clear
10:53 AM 46.9 °F - 14.0 °F 27% 30.07 in 10.0 mi East 3.5 mph - N/A   Clear
11:53 AM 50.0 °F - 12.9 °F 23% 30.04 in 10.0 mi Calm Calm - N/A   Clear
12:53 PM 53.1 °F - 12.0 °F 20% 29.99 in 10.0 mi Calm Calm - N/A   Clear
1:53 PM 57.0 °F - 14.0 °F 18% 29.96 in 10.0 mi Calm Calm - N/A   Clear
2:53 PM 59.0 °F - 9.0 °F 14% 29.93 in 10.0 mi SW 8.1 mph - N/A   Clear
3:53 PM 61.0 °F - 10.0 °F 13% 29.91 in 10.0 mi WSW 4.6 mph 17.3 mph N/A   Clear
4:53 PM 61.0 °F - 12.0 °F 15% 29.90 in 10.0 mi SW 8.1 mph - N/A   Clear
5:53 PM 62.1 °F - 10.9 °F 13% 29.89 in 10.0 mi Calm Calm - N/A   Clear
6:40 PM 60.8 °F - 12.2 °F 15% 29.95 in 2.5 mi SSW 3.5 mph - N/A   Haze
6:44 PM 60.8 °F - 12.2 °F 15% 29.95 in 1.5 mi SW 3.5 mph - N/A   Haze
6:48 PM 60.8 °F - 14.0 °F 16% 29.95 in 2.0 mi SSW 3.5 mph - N/A   Haze
6:53 PM 61.0 °F - 14.0 °F 16% 29.91 in 6.0 mi Calm Calm - N/A   Haze
7:53 PM 59.0 °F - 12.9 °F 16% 29.91 in 10.0 mi Calm Calm - N/A   Mostly Cloudy
8:53 PM 52.0 °F - 17.1 °F 25% 29.93 in 10.0 mi NNW 6.9 mph - N/A   Partly Cloudy
9:53 PM 50.0 °F - 19.0 °F 29% 29.96 in 10.0 mi NW 3.5 mph - N/A   Clear
10:53 PM 48.0 °F - 18.0 °F 30% 29.97 in 10.0 mi Calm Calm - N/A   Clear
11:53 PM 48.9 °F - 14.0 °F 25% 29.97 in 10.0 mi Calm Calm - N/A   Clear